Vorticity
nan nan nan nan nan nan nan nan nan nan nan nan nan nan nan nan nan nan nan nan nan nan nan nan nan nan nan nan nan nan nan nan nan nan nan nan nan nan nan nan nan nan nan
nan 12 12 9 7 10 13 12 12 8 3 6 6 5 9 8 8 9 11 10 7 7 9 9 11 9 9 10 11 8 6 9 9 5 4 5 7 10 9 8 8 8 nan
nan 13 12 9 9 10 12 12 12 8 6 5 4 6 6 8 10 8 8 10 7 6 7 8 11 10 6 9 11 11 6 5 9 6 3 5 9 10 9 7 8 7 nan
nan 11 12 12 12 12 13 12 13 10 9 7 6 6 3 6 9 8 6 10 12 7 6 7 8 8 9 10 8 8 9 8 7 6 6 6 11 5 7 11 9 8 nan
nan 12 16 17 15 15 12 13 12 11 10 7 5 6 5 7 10 11 10 8 10 12 12 11 10 6 8 11 9 7 6 7 8 7 8 8 8 8 7 10 10 9 nan
nan 12 15 19 16 12 11 12 10 10 9 8 9 8 8 6 5 8 8 10 12 13 13 12 11 11 10 10 9 10 8 6 7 8 8 7 5 8 6 10 12 9 nan
nan 13 16 18 14 11 9 11 12 8 8 9 8 9 7 6 6 7 8 8 7 11 15 12 9 10 12 12 10 9 9 7 8 7 6 7 6 7 9 9 13 10 nan
nan 13 15 16 15 11 10 11 12 9 8 9 8 8 6 5 10 9 10 10 9 11 13 12 13 12 11 11 9 7 11 9 10 9 6 8 9 9 12 12 11 9 nan
nan 11 11 11 15 16 13 12 12 10 10 8 7 8 8 7 8 10 10 11 11 12 13 11 11 11 11 11 9 9 10 10 12 12 8 8 8 9 10 12 10 10 nan
nan 8 9 10 13 16 16 12 12 11 11 8 7 8 8 9 9 11 11 11 12 11 10 10 11 10 9 10 9 10 12 8 6 11 12 8 7 8 7 7 9 11 nan
nan 9 10 11 14 15 15 14 13 13 11 8 8 8 9 10 10 11 10 11 12 11 10 10 10 11 10 7 7 10 9 10 8 7 7 6 6 5 7 7 7 10 nan
nan 8 10 10 14 20 16 12 10 12 10 9 9 8 10 10 8 10 10 11 12 11 9 9 10 10 10 10 10 8 8 7 7 8 8 5 6 7 6 7 8 9 nan
nan 5 7 8 7 17 21 14 8 10 10 10 7 9 9 8 8 9 9 9 10 12 10 9 8 8 9 9 8 9 9 9 10 9 9 11 9 7 7 8 6 8 nan
nan 5 7 9 9 7 9 15 20 15 9 9 9 9 9 8 8 8 9 9 8 9 12 11 8 8 8 7 7 8 7 6 8 11 12 13 14 13 10 9 9 8 nan
nan 6 7 6 9 8 8 8 11 17 21 14 8 9 11 9 8 8 8 9 8 7 8 10 13 12 8 11 11 9 7 6 5 8 10 11 15 16 20 20 19 13 nan
nan 6 6 7 8 8 8 9 9 11 15 20 18 11 12 12 9 9 8 8 9 9 9 7 7 7 13 16 11 9 10 10 8 8 9 11 8 9 12 15 18 26 nan
nan 7 7 8 8 11 9 9 9 9 12 18 21 19 14 10 11 11 9 8 9 9 9 9 9 7 9 13 13 12 12 13 12 10 7 7 7 7 4 3 3 8 nan
nan 8 8 9 9 9 12 12 11 10 10 9 11 13 21 21 12 10 11 10 9 9 9 11 10 8 11 11 9 10 11 15 13 11 10 10 10 10 9 4 4 6 nan
nan 9 9 9 9 10 11 11 8 9 10 9 8 9 12 13 20 21 10 10 9 10 10 11 13 12 14 13 8 5 9 11 11 12 13 12 17 19 7 5 6 7 nan
nan 10 10 9 8 10 12 10 10 9 8 8 11 11 11 12 12 15 17 15 16 13 11 10 11 17 19 21 13 2 6 9 9 10 14 15 18 15 10 11 7 6 nan
nan 10 10 9 8 11 12 11 9 7 11 11 11 11 12 12 14 16 20 17 14 15 12 11 11 12 14 14 17 25 19 10 10 10 10 15 19 13 13 9 15 15 nan
nan 11 10 8 8 10 12 9 8 10 12 12 12 11 13 14 15 17 17 17 15 10 10 9 8 9 11 11 19 21 23 22 15 12 16 23 16 13 8 16 18 5 nan
nan 10 10 9 8 9 11 10 9 12 13 13 11 12 14 14 13 14 14 13 12 11 10 10 10 10 10 10 11 10 12 17 14 18 17 12 5 4 5 8 -0 3 nan
nan 10 10 9 10 11 11 11 11 13 13 12 12 12 11 14 15 15 13 13 12 12 12 11 10 10 10 10 7 7 6 7 8 12 7 3 1 2 4 1 5 9 nan
nan 10 11 10 10 10 10 11 13 15 13 12 11 11 10 10 10 13 18 20 20 24 19 16 13 10 14 20 22 18 14 9 10 7 6 6 7 7 7 10 11 11 nan
nan nan nan nan nan nan nan nan nan nan nan nan nan nan nan nan nan nan nan nan nan nan nan nan nan nan nan nan nan nan nan nan nan nan nan nan nan nan nan nan nan nan nan
CAPE
0 0 0 0 74 74 133 586 978 1374 576 558 515 661 555 274 295 284 15 6 18 11 35 22 98 69 63 227 147 228 204 180 162 119 80 50 35 32 19 17 17 22 30
0 0 0 0 211 300 420 534 854 1293 356 501 805 559 159 97 30 54 59 32 9 6 8 12 49 16 65 94 55 181 204 172 192 106 73 38 51 44 33 12 15 23 12
0 0 0 0 65 400 585 605 827 1180 853 1068 510 677 494 137 281 181 139 31 12 7 6 5 1 2 7 4 2 129 167 137 181 155 34 17 26 34 29 19 14 12 7
0 0 0 0 11 318 542 501 762 854 863 1040 690 595 396 157 152 175 148 61 93 63 8 9 2 1 2 1 0 1 68 162 125 121 20 8 14 31 30 20 14 6 5
2 63 3 0 0 260 408 147 449 566 789 957 719 455 132 132 104 214 210 207 79 29 23 3 1 1 0 0 0 1 23 74 203 143 26 44 44 58 4 2 5 3 6
19 69 54 0 6 411 76 38 321 241 144 380 427 247 84 42 92 97 163 142 48 22 2 1 1 1 0 0 0 0 2 153 200 172 83 48 39 50 4 3 3 3 33
178 189 153 103 99 280 4 8 239 41 6 28 86 81 52 4 10 14 65 51 6 2 1 1 1 1 2 1 0 0 2 99 191 165 133 24 42 0 1 10 17 18 74
395 304 222 325 166 3 6 9 81 1 4 99 72 60 12 10 18 70 42 15 4 1 1 0 1 0 1 0 0 0 0 19 132 231 138 64 51 60 57 61 125 172 131
529 438 277 238 139 5 1 8 7 1 3 184 168 31 10 15 15 68 30 2 5 1 2 4 4 3 2 2 2 2 3 10 54 202 274 153 110 203 126 137 145 144 119
268 194 149 17 7 4 8 12 10 7 0 39 12 10 4 19 22 59 11 2 5 4 4 9 9 6 4 2 7 14 17 57 52 16 14 20 65 126 175 205 182 146 125
181 60 8 13 12 5 7 13 9 10 9 2 8 9 8 16 21 34 19 6 5 5 5 11 7 5 13 9 7 5 0 3 1 0 35 85 70 124 153 207 217 150 109
38 2 6 0 1 8 9 9 5 11 11 15 10 2 13 25 19 18 6 7 3 4 5 5 7 6 10 3 5 9 0 0 0 28 22 38 48 112 133 170 164 177 140
2 0 0 0 0 0 7 7 7 9 10 7 3 5 13 15 17 31 18 7 6 8 3 1 1 4 8 0 0 0 0 0 0 0 1 21 52 84 87 104 79 70 12
20 0 0 0 0 0 0 2 6 11 9 6 8 15 18 30 17 35 20 11 7 2 6 4 2 2 1 0 0 0 0 0 0 1 0 0 3 15 19 0 14 5 5
29 1 1 5 3 0 0 0 2 2 1 19 20 23 33 28 9 22 25 25 14 8 4 8 5 3 2 2 1 0 0 3 0 0 0 0 1 1 0 0 0 0 0
0 1 0 0 0 4 0 0 1 4 2 0 23 27 15 2 18 21 10 10 23 32 33 13 1 0 0 0 0 1 1 1 0 1 0 0 0 0 0 0 0 1 0
0 0 0 0 0 0 5 5 1 2 4 0 1 12 1 4 4 16 11 11 7 14 12 9 7 7 1 1 2 0 1 0 0 0 0 0 0 0 0 1 0 0 0
1 0 0 0 0 0 0 1 0 1 1 1 0 0 0 7 9 7 7 19 20 10 7 9 10 7 3 2 2 1 0 0 0 0 0 0 0 0 2 2 1 2 2
1 1 0 0 0 0 2 1 0 0 0 1 1 1 1 0 0 13 13 16 24 17 12 4 4 4 7 1 1 0 0 0 0 0 0 0 1 1 0 1 4 6 7
0 0 0 0 0 0 2 0 2 1 1 2 3 1 1 0 0 0 10 5 17 11 0 0 0 0 0 1 1 0 0 1 2 1 1 0 1 2 0 0 0 1 3
0 0 0 0 0 1 1 1 2 1 1 2 1 1 0 1 1 1 0 0 0 0 0 0 1 0 0 0 0 0 0 0 1 2 3 4 4 4 3 0 0 1 3
0 0 0 0 0 0 1 2 2 0 1 1 0 1 1 1 1 2 0 0 0 0 0 0 1 0 0 0 1 0 0 0 1 2 4 7 9 7 3 2 5 5 2
0 0 0 0 0 0 1 2 5 1 1 1 2 2 2 1 1 1 1 0 0 0 0 1 1 1 1 1 1 2 1 2 1 1 6 13 12 11 9 11 7 2 6
0 0 0 0 0 0 2 3 4 4 1 2 2 3 4 4 2 1 1 1 1 0 0 1 2 2 1 2 1 3 3 6 1 0 0 1 4 1 2 4 7 5 6
0 0 1 1 0 1 1 2 4 2 2 3 3 4 7 6 6 6 5 3 1 0 1 1 1 1 0 1 0 0 0 0 1 0 0 0 0 1 2 3 3 2 1
1 2 2 3 2 1 2 4 5 3 2 3 4 6 7 8 7 6 6 8 6 5 2 1 0 2 5 8 9 11 10 8 5 0 1 3 4 4 1 2 2 4 1